JH4XSY-13 Weather Reports


time (UTC)temp
F
wind
direction
speed
knots
gust
knots
rain 1hr
in
rain 24hr
in
rain mn
in
humidity
%
barometer
mb
20260508183805 63 0.0 0.0 0.00 0.00 0.00 65
20260508180806 63 0.0 0.0 0.00 0.00 0.00 65
20260508173806 63 0.0 0.0 0.00 0.00 0.00 66
20260508170805 64 0.0 0.0 0.00 0.00 0.00 68
20260508163806 64 0.0 0.0 0.00 0.00 0.00 69
20260508160804 65 0.0 0.0 0.00 0.00 0.00 68
20260508153806 66 0.0 0.0 0.00 0.00 0.00 66
20260508150807 67 0.0 0.0 0.00 0.00 0.00 64
20260508143804 68 0.0 0.0 0.00 0.00 0.00 63
20260508140803 70 0.0 0.0 0.00 0.00 0.00 69
20260508133806 71 0.0 0.0 0.00 0.00 0.00 68
20260508130805 71 0.0 0.0 0.00 0.00 0.00 70
20260508123804 71 0.0 0.0 0.00 0.00 0.00 73
20260508120805 70 0.0 0.0 0.00 0.00 0.00 75
20260508113803 71 0.0 0.0 0.00 0.00 0.00 74
20260508110806 71 0.0 0.0 0.00 0.00 0.00 73
20260508103804 71 0.0 0.0 0.00 0.00 0.00 72
20260508100804 71 0.0 0.0 0.00 0.00 0.00 72
20260508093806 71 0.0 0.0 0.00 0.00 0.00 71
20260508090803 72 0.0 0.0 0.00 0.00 0.00 68
20260508083803 73 0.0 0.0 0.00 0.00 0.00 65
20260508080806 74 0.0 0.0 0.00 0.00 0.00 66
20260508073805 75 0.0 0.0 0.00 0.00 0.00 67
20260508070804 76 0.0 0.0 0.00 0.00 0.00 64
20260508063803 76 0.0 0.0 0.00 0.00 0.00 65
20260508060804 75 0.0 0.0 0.00 0.00 0.00 69
20260508053804 75 0.0 0.0 0.00 0.00 0.00 69
20260508050804 76 0.0 0.0 0.00 0.00 0.00 67
20260508043804 77 0.0 0.0 0.00 0.00 0.00 63
20260508040804 77 0.0 0.0 0.00 0.00 0.00 61
20260508033806 76 0.0 0.0 0.00 0.00 0.00 65
20260508030805 76 0.0 0.0 0.00 0.00 0.00 66
20260508023805 77 0.0 0.0 0.00 0.00 0.00 62
20260508020803 81 0.0 0.0 0.00 0.00 0.00 55
20260508013804 80 0.0 0.0 0.00 0.00 0.00 59
20260508010803 79 0.0 0.0 0.00 0.00 0.00 61
20260508003805 76 0.0 0.0 0.00 0.00 0.00 66
20260508000805 74 0.0 0.0 0.00 0.00 0.00 67
20260507233805 75 0.0 0.0 0.00 0.00 0.00 74
20260507230803 72 0.0 0.0 0.00 0.00 0.00 81
20260507223804 70 0.0 0.0 0.00 0.00 0.00 86
20260507220806 68 0.0 0.0 0.00 0.00 0.00 88
20260507213805 67 0.0 0.0 0.00 0.00 0.00 89
20260507210806 66 0.0 0.0 0.00 0.00 0.00 89
20260507203806 65 0.0 0.0 0.00 0.00 0.00 88
20260507200804 65 0.0 0.0 0.00 0.00 0.00 88
20260507193806 65 0.0 0.0 0.00 0.00 0.00 88
20260507190806 65 0.0 0.0 0.00 0.00 0.00 88